(357906) = 2005 VZ85

Discovered at Mount Lemmon on 2005-11-04 by Mt. Lemmon Survey.

Orbit

Orbit type: Main Belt

Note: WebGL enabled browser required.

epoch2024-03-31.0
epoch JD2460400.5
perihelion date2019-05-03.23767
perihelion JD2458606.73767
argument of perihelion (°)319.23992
ascending node (°)206.76967
inclination (°)9.57198
eccentricity0.1895440
perihelion distance (AU)2.6999653
Tisserand w.r.t. Jupiter3.1
ΔV w.r.t. Earth (km/sec)10.7
semimajor axis (AU)3.3314148
mean anomaly (°)290.75414
mean daily motion (°/day)0.16209180
aphelion distance (AU)3.963
period (years)6.08
P-vector [x]-0.96624209
P-vector [y]0.25754948
P-vector [z]-0.00667041
Q-vector [x]-0.24650919
Q-vector [y]-0.93172916
Q-vector [z]-0.26667207
absolute magnitude16.05
phase slope0.15
uncertainty0
referenceE2024-FB1
observations used216
oppositions13
arc length (days)8302
first opposition used2001
last opposition used2023
residual rms (arc-secs)0.76
perturbers coarse indicatorM-v
perturbers precise indicator003Ek
first observation date used2001-03-23.0
last observation date used2023-12-15.0
computer nameMPCLINUX
JD of orbit computation2456909.171205
perihelion JD uncertainty (days)1.6571E-04
argument of perihelion uncertainty (°)6.8078E-05
ascending node uncertainty (°)6.0270E-05
inclination uncertainty (°)1.0888E-05
eccentricity uncertainty 8.0497E-08
perihelion distance uncertainty (AU)2.6641E-07
Minimum Orbit Intersection Distances (in AU)
for orbit epoch: 2460400.5, reference: E2024-FB1
Mercury2.32255
Venus1.99378
Earth1.71548
Mars1.07461
Jupiter1.10477
Saturn5.54282
Uranus15.7609
Neptune25.9692

Observations

215 total observations over interval: 2001 03 23.28322 – 2023 12 15.314234
These data are available for download (format description).

Date (UT) J2000 RA J2000 Dec Magn Location Ref
2001 03 23.28322 12 12 32.03 -08 17 51.8 19.4 R 699 – Lowell Observatory-LONEOS MPS 213747
2001 03 23.29881 12 12 31.40 -08 17 44.7   699 – Lowell Observatory-LONEOS MPS 213747
2001 03 23.31439 12 12 30.69 -08 17 36.9   699 – Lowell Observatory-LONEOS MPS 213747
2001 03 23.33001 12 12 30.08 -08 17 30.5   699 – Lowell Observatory-LONEOS MPS 213747
2005 11 04.38944 04 56 08.77 +15 38 26.9 20.3 V G96 – Mt. Lemmon Survey MPS 151244
2005 11 04.39274 04 56 08.62 +15 38 25.9 20.5 V G96 – Mt. Lemmon Survey MPS 151244
2005 11 04.39475 04 56 08.55 +15 38 25.4 20.2 V G96 – Mt. Lemmon Survey MPS 151244
2005 11 04.39806 04 56 08.48 +15 38 24.3 20.6 V G96 – Mt. Lemmon Survey MPS 151244
2005 11 04.40003 04 56 08.41 +15 38 24.1 20.4 V G96 – Mt. Lemmon Survey MPS 151244
2005 11 04.40336 04 56 08.34 +15 38 23.3 20.7 V G96 – Mt. Lemmon Survey MPS 151244
2005 11 04.40535 04 56 08.26 +15 38 23.1 20.4 V G96 – Mt. Lemmon Survey MPS 151244
2005 11 04.40866 04 56 08.16 +15 38 22.2 20.6 V G96 – Mt. Lemmon Survey MPS 151244
2005 11 10.41243 04 52 52.48 +15 13 18.6 21.2 V 691 – Steward Observatory, Kitt Peak-Spacewatch MPS 151244
2005 11 10.43020 04 52 51.76 +15 13 13.0 21.6 V 691 – Steward Observatory, Kitt Peak-Spacewatch MPS 151244
2005 11 10.44796 04 52 51.08 +15 13 09.0 21.4 V 691 – Steward Observatory, Kitt Peak-Spacewatch MPS 151244
2007 03 13.27238 11 39 49.86 -06 51 45.2 19.7 V 703 – Catalina Sky Survey MPS 213747
2007 03 13.27880 11 39 49.53 -06 51 42.2 19.9 V 703 – Catalina Sky Survey MPS 213747
2007 03 13.28520 11 39 49.28 -06 51 39.2 19.8 V 703 – Catalina Sky Survey MPS 213747
2007 03 13.29162 11 39 48.99 -06 51 37.9 19.3 V 703 – Catalina Sky Survey MPS 213747
2007 03 19.20021 11 35 54.02 -06 07 58.6 19.2 R 699 – Lowell Observatory-LONEOS MPS 213747
2007 03 19.21667 11 35 53.49 -06 07 51.1   699 – Lowell Observatory-LONEOS MPS 213747
2007 03 19.23313 11 35 52.70 -06 07 44.2   699 – Lowell Observatory-LONEOS MPS 213747
2007 03 19.24958 11 35 52.06 -06 07 36.3   699 – Lowell Observatory-LONEOS MPS 213747
2007 04 16.21148 11 21 52.34 -02 37 23.5 19.7 R 699 – Lowell Observatory-LONEOS MPS 213747
2007 04 16.23337 11 21 52.10 -02 37 17.3   699 – Lowell Observatory-LONEOS MPS 213747
2007 04 16.25527 11 21 51.66 -02 37 09.1   699 – Lowell Observatory-LONEOS MPS 213747
2007 04 16.27720 11 21 51.31 -02 36 57.5   699 – Lowell Observatory-LONEOS MPS 213747
2011 10 24.41775 04 20 42.72 +15 34 28.9 21.2 V G96 – Mt. Lemmon Survey MPS 396314
2011 10 24.42294 04 20 42.61 +15 34 28.1 21.1 V G96 – Mt. Lemmon Survey MPS 396314
2011 10 24.42819 04 20 42.43 +15 34 25.9 20.7 V G96 – Mt. Lemmon Survey MPS 396314
2011 10 24.43340 04 20 42.28 +15 34 24.9 21.4 V G96 – Mt. Lemmon Survey MPS 396314
2011 10 26.41941 04 19 48.874 +15 26 06.61 23.9 w F51 – Pan-STARRS 1, Haleakala MPS 396314
2011 10 26.43393 04 19 48.433 +15 26 03.12 23.8 w F51 – Pan-STARRS 1, Haleakala MPS 396314
2011 10 26.46305 04 19 47.583 +15 25 55.76 23.8 w F51 – Pan-STARRS 1, Haleakala MPS 396314
2011 11 27.29852 03 57 57.85 +13 03 44.6 19.7 V G96 – Mt. Lemmon Survey MPS 402378
2011 11 27.30713 03 57 57.42 +13 03 42.5 19.9 V G96 – Mt. Lemmon Survey MPS 402378
2011 11 27.31582 03 57 56.98 +13 03 40.1 20.3 V G96 – Mt. Lemmon Survey MPS 402378
2011 11 27.32446 03 57 56.59 +13 03 38.2 20.2 V G96 – Mt. Lemmon Survey MPS 402378
2013 02 05.53507 10 45 16.191 -04 32 03.39 19.5 r F51 – Pan-STARRS 1, Haleakala MPS 453698
2013 02 05.54630 10 45 15.830 -04 32 01.61 19.5 r F51 – Pan-STARRS 1, Haleakala MPS 453698
2013 02 11.40965 10 42 05.29 -04 12 26.2 20.1 V 703 – Catalina Sky Survey MPS 453698
2013 02 11.41509 10 42 05.07 -04 12 26.4 19.5 V 703 – Catalina Sky Survey MPS 453698
2013 02 11.42054 10 42 04.86 -04 12 24.6 19.8 V 703 – Catalina Sky Survey MPS 453698
2013 02 11.42597 10 42 04.68 -04 12 21.6 19.9 V 703 – Catalina Sky Survey MPS 453698
2013 03 14.26024 10 22 05.19 -00 58 36.4 20.0 V 703 – Catalina Sky Survey MPS 459282
2013 03 14.26752 10 22 04.87 -00 58 32.1 19.7 V 703 – Catalina Sky Survey MPS 459282
2013 03 14.27493 10 22 04.80 -00 58 28.8 19.7 V 703 – Catalina Sky Survey MPS 459282
2013 03 14.28228 10 22 04.47 -00 58 24.3 20.2 V 703 – Catalina Sky Survey MPS 459282
2013 03 14.28970 10 22 04.22 -00 58 21.3 19.6 V 703 – Catalina Sky Survey MPS 459282
2013 03 16.21990 10 21 00.64 -00 43 45.0 19.1 G G45 – Space Surveillance Telescope, Atom Site MPS 1610055
2013 03 16.23217 10 21 00.17 -00 43 39.7 19.7 G G45 – Space Surveillance Telescope, Atom Site MPS 1610055
2013 03 16.33397 10 20 56.77 -00 42 53.3 19.7 G G45 – Space Surveillance Telescope, Atom Site MPS 1610055
2013 03 16.34588 10 20 56.36 -00 42 48.2 19.8 G G45 – Space Surveillance Telescope, Atom Site MPS 1610055
2013 03 16.39287 10 20 54.82 -00 42 26.6 19.8 G G45 – Space Surveillance Telescope, Atom Site MPS 1610055
2013 04 03.32700 10 14 29.815 +01 25 03.16 20.0 w F51 – Pan-STARRS 1, Haleakala MPS 462656
2013 04 03.34206 10 14 29.639 +01 25 08.89 20.0 w F51 – Pan-STARRS 1, Haleakala MPS 462656
2013 04 03.35716 10 14 29.465 +01 25 14.56 19.9 w F51 – Pan-STARRS 1, Haleakala MPS 462656
2014 06 05.49936 17 18 33.186 -12 48 02.70 20.8 w F51 – Pan-STARRS 1, Haleakala MPS 518793
2014 06 05.51440 17 18 32.486 -12 48 00.11 20.9 w F51 – Pan-STARRS 1, Haleakala MPS 518793
2014 06 05.52942 17 18 31.746 -12 47 58.05 20.7 w F51 – Pan-STARRS 1, Haleakala MPS 518793
2014 06 24.31366 17 04 23.09 -12 13 11.5 20.5 V G96 – Mt. Lemmon Survey MPS 526487
2014 06 24.31877 17 04 22.83 -12 13 11.1 20.6 V G96 – Mt. Lemmon Survey MPS 526487
2014 06 24.32388 17 04 22.64 -12 13 11.1 20.6 V G96 – Mt. Lemmon Survey MPS 526487
2014 06 24.32898 17 04 22.44 -12 13 09.7 19.7 V G96 – Mt. Lemmon Survey MPS 526487
2014 07 01.27121 16 59 52.52 -12 07 23.4 21.0 V G96 – Mt. Lemmon Survey MPS 526487
2014 07 01.27579 16 59 52.35 -12 07 23.2 20.6 V G96 – Mt. Lemmon Survey MPS 526487
2014 07 01.28037 16 59 52.24 -12 07 22.8 20.9 V G96 – Mt. Lemmon Survey MPS 526487
2014 07 01.28495 16 59 52.05 -12 07 22.7 20.9 V G96 – Mt. Lemmon Survey MPS 526487
2014 07 02.33029 16 59 14.915 -12 06 51.15 21.3 w F51 – Pan-STARRS 1, Haleakala MPS 522175
2014 07 02.34291 16 59 14.440 -12 06 50.69 21.2 w F51 – Pan-STARRS 1, Haleakala MPS 522175
2014 07 02.36812 16 59 13.524 -12 06 50.02 21.2 w F51 – Pan-STARRS 1, Haleakala MPS 522175
2014 08 14.26149 16 51 01.079 -12 52 24.34 21.8 w F51 – Pan-STARRS 1, Haleakala MPS 527020
2014 08 14.27378 16 51 01.237 -12 52 26.18 21.9 w F51 – Pan-STARRS 1, Haleakala MPS 527020
2014 08 14.28608 16 51 01.378 -12 52 27.79 21.7 w F51 – Pan-STARRS 1, Haleakala MPS 527020
2016 09 12.51740 00 10 46.536 +07 21 45.23 21.6 w F51 – Pan-STARRS 1, Haleakala MPS 729804
2016 09 12.53077 00 10 46.025 +07 21 41.35 21.8 w F51 – Pan-STARRS 1, Haleakala MPS 729804
2016 09 12.54429 00 10 45.521 +07 21 37.42 21.5 w F51 – Pan-STARRS 1, Haleakala MPS 729804
2016 09 12.55780 00 10 45.010 +07 21 33.31 21.7 w F51 – Pan-STARRS 1, Haleakala MPS 729804
2016 09 22.34390 00 04 35.02 +06 30 20.7 21.6 V G96 – Mt. Lemmon Survey MPS 730648
2016 09 22.35084 00 04 34.72 +06 30 18.6 21.1 V G96 – Mt. Lemmon Survey MPS 730648
2016 09 22.35513 00 04 34.55 +06 30 17.2 21.6 V G96 – Mt. Lemmon Survey MPS 730648
2016 09 22.35948 00 04 34.42 +06 30 14.8 21.2 V G96 – Mt. Lemmon Survey MPS 730648
2017 11 11.05910 03 55 59.13 +14 02 04.8 20.2   J43 – Oukaimeden Observatory, Marrakech MPS 838805
2017 11 11.06923 03 55 58.69 +14 02 01.6 20.6   J43 – Oukaimeden Observatory, Marrakech MPS 838805
2017 11 11.07948 03 55 58.19 +14 01 58.8 20.0   J43 – Oukaimeden Observatory, Marrakech MPS 838805
2017 11 11.08966 03 55 57.80 +14 01 56.0 19.8   J43 – Oukaimeden Observatory, Marrakech MPS 838805
2017 11 15.29070 03 52 48.17 +13 42 10.6 20.7 G G96 – Mt. Lemmon Survey MPS 838805
2017 11 15.29590 03 52 47.92 +13 42 09.2 20.5 G G96 – Mt. Lemmon Survey MPS 838805
2017 11 15.30106 03 52 47.67 +13 42 07.6 20.6 G G96 – Mt. Lemmon Survey MPS 838805
2017 11 15.30622 03 52 47.46 +13 42 06.0 20.3 G G96 – Mt. Lemmon Survey MPS 838805
2017 11 18.33575 03 50 26.979 +13 28 01.63 20.6 w F51 – Pan-STARRS 1, Haleakala MPS 842600
2017 11 18.34737 03 50 26.424 +13 27 58.47 20.4 w F51 – Pan-STARRS 1, Haleakala MPS 842600
